datetime,flow
1998-10-15,7.2
1998-10-16,7.2
1998-10-17,7.2
1998-10-18,7.2
1998-10-19,7.1
1998-10-20,7.1
1998-10-21,7.0
1998-10-22,7.3
1998-10-23,8.1
1998-10-24,7.8
1998-10-25,8.5
1998-10-26,8.2
1998-10-27,7.9
1998-10-28,7.8
1998-10-29,7.9
1998-10-30,8.3
1998-10-31,8.0
1998-11-01,7.9
1998-11-02,7.9
1998-11-03,8.1
1998-11-04,8.1
1998-11-05,8.0
1998-11-06,16.0
1998-11-07,32.0
1998-11-08,32.0
1998-11-09,32.0
1998-11-10,32.0
1998-11-11,32.0
1998-11-12,32.0
1998-11-13,32.0
1998-11-14,32.0
1998-11-15,32.0
1998-11-16,32.0
1998-11-17,32.0
1998-11-18,32.0
1998-11-19,31.0
1998-11-20,31.0
1998-11-21,31.0
1998-11-22,41.0
1998-11-23,68.0
1998-11-24,75.0
1998-11-25,31.0
1998-11-26,31.0
1998-11-27,31.0
1998-11-28,31.0
1998-11-29,31.0
1998-11-30,31.0
1998-12-01,31.0
1998-12-02,31.0
1998-12-03,31.0
1998-12-04,31.0
1998-12-05,31.0
1998-12-06,30.0
1998-12-07,30.0
1998-12-08,30.0
1998-12-09,31.0
1998-12-10,30.0
1998-12-11,29.0
1998-12-12,30.0
1998-12-13,30.0
1998-12-14,30.0
1998-12-15,30.0
1998-12-16,30.0
1998-12-17,30.0
1998-12-18,30.0
1998-12-19,27.0
1998-12-20,25.0
1998-12-21,23.0
1998-12-22,22.0
1998-12-23,22.0
1998-12-24,22.0
1998-12-25,22.0
1998-12-26,22.0
1998-12-27,22.0
1998-12-28,23.0
1998-12-29,23.0
1998-12-30,23.0
1998-12-31,23.0
1999-01-01,22.0
1999-01-02,22.0
1999-01-03,22.0
1999-01-04,23.0
1999-01-05,26.0
1999-01-06,25.0
1999-01-07,24.0
1999-01-08,24.0
1999-01-09,25.0
1999-01-10,24.0
1999-01-11,24.0
1999-01-12,24.0
1999-01-13,24.0
1999-01-14,26.0
1999-01-15,24.0
1999-01-16,24.0
1999-01-17,24.0
1999-01-18,24.0
1999-01-19,24.0
1999-01-20,25.0
1999-01-21,24.0
1999-01-22,24.0
1999-01-23,24.0
1999-01-24,24.0
1999-01-25,24.0
1999-01-26,24.0
1999-01-27,24.0
1999-01-28,23.0
1999-01-29,23.0
1999-01-30,23.0
1999-01-31,24.0
1999-02-01,24.0
1999-02-02,23.0
1999-02-03,24.0
1999-02-04,25.0
1999-02-05,24.0
1999-02-06,24.0
1999-02-07,24.0
1999-02-08,24.0
1999-02-09,24.0
1999-02-10,25.0
1999-02-11,24.0
1999-02-12,24.0
1999-02-13,24.0
1999-02-14,24.0
1999-02-15,25.0
1999-02-16,27.0
1999-02-17,24.0
1999-02-18,24.0
1999-02-19,24.0
1999-02-20,27.0
1999-02-21,24.0
1999-02-22,25.0
1999-02-23,24.0
1999-02-24,25.0
1999-02-25,24.0
1999-02-26,24.0
1999-02-27,26.0
1999-02-28,24.0
1999-03-01,24.0
1999-03-02,24.0
1999-03-03,25.0
1999-03-04,26.0
1999-03-05,26.0
1999-03-06,26.0
1999-03-07,26.0
1999-03-08,26.0
1999-03-09,26.0
1999-03-10,26.0
1999-03-11,26.0
1999-03-12,26.0
1999-03-13,27.0
1999-03-14,27.0
1999-03-15,27.0
1999-03-16,27.0
1999-03-17,27.0
1999-03-18,28.0
1999-03-19,28.0
1999-03-20,29.0
1999-03-21,28.0
1999-03-22,28.0
1999-03-23,29.0
1999-03-24,29.0
1999-03-25,29.0
1999-03-26,29.0
1999-03-27,29.0
1999-03-28,29.0
1999-03-29,29.0
1999-03-30,29.0
1999-03-31,29.0
1999-04-01,32.0
1999-04-02,37.0
1999-04-03,36.0
1999-04-04,36.0
1999-04-05,36.0
1999-04-06,36.0
1999-04-07,37.0
1999-04-08,37.0
1999-04-09,37.0
1999-04-10,39.0
1999-04-11,36.0
1999-04-12,37.0
1999-04-13,37.0
1999-04-14,37.0
1999-04-15,37.0
1999-04-16,37.0
1999-04-17,37.0
1999-04-18,34.0
1999-04-19,30.0
1999-04-20,41.0
1999-04-21,42.0
1999-04-22,41.0
1999-04-23,41.0
1999-04-24,41.0
1999-04-25,42.0
1999-04-26,42.0
1999-04-27,45.0
1999-04-28,46.0
1999-04-29,48.0
1999-04-30,48.0
1999-05-01,48.0
1999-05-02,49.0
1999-05-03,53.0
1999-05-04,51.0
1999-05-05,51.0
1999-05-06,51.0
1999-05-07,52.0
1999-05-08,54.0
1999-05-09,55.0
1999-05-10,55.0
1999-05-11,55.0
1999-05-12,53.0
1999-05-13,53.0
1999-05-14,56.0
1999-05-15,55.0
1999-05-16,55.0
1999-05-17,55.0
1999-05-18,55.0
1999-05-19,56.0
1999-05-20,56.0
1999-05-21,57.0
1999-05-22,57.0
1999-05-23,57.0
1999-05-24,56.0
1999-05-25,56.0
1999-05-26,55.0
1999-05-27,55.0
1999-05-28,54.0
1999-05-29,53.0
1999-05-30,53.0
1999-05-31,52.0
1999-06-01,52.0
1999-06-02,52.0
1999-06-03,50.0
1999-06-04,49.0
1999-06-05,49.0
1999-06-06,49.0
1999-06-07,49.0
1999-06-08,48.0
1999-06-09,48.0
1999-06-10,48.0
1999-06-11,48.0
1999-06-12,48.0
1999-06-13,48.0
1999-06-14,48.0
1999-06-15,48.0
1999-06-16,48.0
1999-06-17,48.0
1999-06-18,48.0
1999-06-19,48.0
1999-06-20,48.0
1999-06-21,47.0
1999-06-22,47.0
1999-06-23,46.0
1999-06-24,45.0
1999-06-25,45.0
1999-06-26,46.0
1999-06-27,45.0
1999-06-28,46.0
1999-06-29,45.0
1999-06-30,45.0
1999-07-01,45.0
1999-07-02,45.0
1999-07-03,45.0
1999-07-04,44.0
1999-07-05,44.0
1999-07-06,44.0
1999-07-07,46.0
1999-07-08,45.0
1999-07-09,44.0
1999-07-10,43.0
1999-07-11,43.0
1999-07-12,43.0
1999-07-13,43.0
1999-07-14,43.0
1999-07-15,43.0
1999-07-16,42.0
1999-07-17,42.0
1999-07-18,41.0
1999-07-19,41.0
1999-07-20,41.0
1999-07-21,40.0
1999-07-22,40.0
1999-07-23,40.0
1999-07-24,40.0
1999-07-25,39.0
1999-07-26,39.0
1999-07-27,39.0
1999-07-28,39.0
1999-07-29,39.0
1999-07-30,39.0
1999-07-31,39.0
1999-08-01,39.0
1999-08-02,39.0
1999-08-03,40.0
1999-08-04,41.0
1999-08-05,40.0
1999-08-06,41.0
1999-08-07,41.0
1999-08-08,40.0
1999-08-09,40.0
1999-08-10,40.0
1999-08-11,41.0
1999-08-12,40.0
1999-08-13,40.0
1999-08-14,40.0
1999-08-15,40.0
1999-08-16,40.0
1999-08-17,40.0
1999-08-18,40.0
1999-08-19,40.0
1999-08-20,40.0
1999-08-21,41.0
1999-08-22,41.0
1999-08-23,41.0
1999-08-24,42.0
1999-08-25,41.0
1999-08-26,41.0
1999-08-27,42.0
1999-08-28,42.0
1999-08-29,42.0
1999-08-30,43.0
1999-08-31,42.0
1999-09-01,42.0
1999-09-02,43.0
1999-09-03,42.0
1999-09-04,42.0
1999-09-05,41.0
1999-09-06,41.0
1999-09-07,41.0
1999-09-08,41.0
1999-09-09,40.0
1999-09-10,26.0
1999-09-11,38.0
1999-09-12,36.0
1999-09-13,38.0
1999-09-14,40.0
1999-09-15,40.0
1999-09-16,40.0
1999-09-17,40.0
1999-09-18,39.0
1999-09-19,40.0
1999-09-20,40.0
1999-09-21,40.0
1999-09-22,40.0
1999-09-23,40.0
1999-09-24,40.0
1999-09-25,39.0
1999-09-26,39.0
1999-09-27,39.0
1999-09-28,40.0
1999-09-29,39.0
1999-09-30,38.0
1999-10-01,37.0
1999-10-02,37.0
1999-10-03,14.0
1999-10-04,6.9
1999-10-05,6.8
1999-10-06,6.7
1999-10-07,6.7
1999-10-08,6.9
1999-10-09,6.9
1999-10-10,6.9
1999-10-11,6.9
1999-10-12,6.6
1999-10-13,6.6
1999-10-14,6.6
1999-10-15,6.4
1999-10-16,6.3
1999-10-17,7.5
1999-10-18,6.9
1999-10-19,6.6
1999-10-20,6.5
1999-10-21,6.5
1999-10-22,6.4
1999-10-23,6.5
1999-10-24,6.4
1999-10-25,6.3
1999-10-26,6.3
1999-10-27,6.3
1999-10-28,6.5
1999-10-29,6.3
1999-10-30,6.6
1999-10-31,6.2
1999-11-01,6.1
1999-11-02,6.1
1999-11-03,6.1
1999-11-04,6.0
1999-11-05,5.9
1999-11-06,6.3
1999-11-07,6.0
1999-11-08,6.0
1999-11-09,5.9
1999-11-10,5.8
1999-11-11,5.6
1999-11-12,5.5
1999-11-13,5.5
1999-11-14,5.6
1999-11-15,5.6
1999-11-16,5.5
1999-11-17,5.5
1999-11-18,5.8
1999-11-19,5.6
1999-11-20,5.5
1999-11-21,5.4
1999-11-22,5.1
1999-11-23,5.2
1999-11-24,5.1
1999-11-25,5.2
1999-11-26,5.2
1999-11-27,5.2
1999-11-28,5.3
1999-11-29,5.4
1999-11-30,5.5
1999-12-01,5.4
1999-12-02,5.4
1999-12-03,5.3
1999-12-04,5.3
1999-12-05,5.3
1999-12-06,5.3
1999-12-07,5.3
1999-12-08,5.2
1999-12-09,5.2
1999-12-10,5.1
1999-12-11,5.0
1999-12-12,5.0
1999-12-13,4.7
1999-12-14,4.6
1999-12-15,4.6
1999-12-16,4.7
1999-12-17,4.7
1999-12-18,4.8
1999-12-19,4.8
1999-12-20,4.8
1999-12-21,4.7
1999-12-22,4.7
1999-12-23,4.7
1999-12-24,4.7
1999-12-25,4.7
1999-12-26,4.7
1999-12-27,4.6
1999-12-28,4.6
1999-12-29,4.5
1999-12-30,4.5
1999-12-31,4.5
2000-01-01,4.4
2000-01-02,4.4
2000-01-03,4.3
2000-01-04,4.3
2000-01-05,4.3
2000-01-06,4.4
2000-01-07,4.5
2000-01-08,4.5
2000-01-09,4.6
2000-01-10,4.8
2000-01-11,4.9
2000-01-12,5.0
2000-01-13,5.0
2000-01-14,5.0
2000-01-15,5.0
2000-01-16,5.2
2000-01-17,5.5
2000-01-18,6.5
2000-01-19,6.5
2000-01-20,5.4
2000-01-21,5.4
2000-01-22,5.2
2000-01-23,5.4
2000-01-24,5.4
2000-01-25,5.3
2000-01-26,5.1
2000-01-27,5.0
2000-01-28,5.2
2000-01-29,5.0
2000-01-30,5.0
2000-01-31,5.2
2000-02-01,5.1
2000-02-02,5.2
2000-02-03,5.1
2000-02-04,5.0
2000-02-05,5.0
2000-02-06,5.0
2000-02-07,5.0
2000-02-08,5.0
2000-02-09,5.0
2000-02-10,5.1
2000-02-11,5.6
2000-02-12,5.6
2000-02-13,5.4
2000-02-14,5.7
2000-02-15,5.7
2000-02-16,5.4
2000-02-17,5.0
2000-02-18,4.7
2000-02-19,4.7
2000-02-20,4.7
2000-02-21,4.7
2000-02-22,4.8
2000-02-23,4.9
2000-02-24,5.1
2000-02-25,4.9
2000-02-26,4.7
2000-02-27,4.7
2000-02-28,4.8
2000-02-29,5.2
2000-03-01,5.5
2000-03-02,5.4
2000-03-03,5.9
2000-03-04,6.0
2000-03-05,6.1
2000-03-06,5.7
2000-03-07,6.0
2000-03-08,5.4
2000-03-09,5.9
2000-03-10,5.5
2000-03-11,6.3
2000-03-12,5.7
2000-03-13,5.8
2000-03-14,5.6
2000-03-15,5.5
2000-03-16,6.2
2000-03-17,5.2
2000-03-18,5.1
2000-03-19,5.4
2000-03-20,5.8
2000-03-21,6.2
2000-03-22,5.5
2000-03-23,5.4
2000-03-24,5.5
2000-03-25,5.9
2000-03-26,6.9
2000-03-27,7.7
2000-03-28,8.3
2000-03-29,8.6
2000-03-30,8.0
2000-03-31,7.2
2000-04-01,7.3
2000-04-02,7.6
2000-04-03,8.5
2000-04-04,9.4
2000-04-05,10.0
2000-04-06,11.0
2000-04-07,10.0
2000-04-08,11.0
2000-04-09,11.0
2000-04-10,11.0
2000-04-11,11.0
2000-04-12,11.0
2000-04-13,12.0
2000-04-14,13.0
2000-04-15,12.0
2000-04-16,11.0
2000-04-17,11.0
2000-04-18,12.0
2000-04-19,32.0
2000-04-20,40.0
2000-04-21,41.0
2000-04-22,41.0
2000-04-23,42.0
2000-04-24,41.0
2000-04-25,41.0
2000-04-26,41.0
2000-04-27,42.0
2000-04-28,42.0
2000-04-29,41.0
2000-04-30,41.0
2000-05-01,41.0
2000-05-02,41.0
2000-05-03,41.0
2000-05-04,41.0
2000-05-05,41.0
2000-05-06,40.0
2000-05-07,40.0
2000-05-08,40.0
2000-05-09,40.0
2000-05-10,40.0
2000-05-11,40.0
2000-05-12,39.0
2000-05-13,40.0
2000-05-14,40.0
2000-05-15,40.0
2000-05-16,39.0
2000-05-17,39.0
2000-05-18,39.0
2000-05-19,39.0
2000-05-20,38.0
2000-05-21,38.0
2000-05-22,38.0
2000-05-23,38.0
2000-05-24,38.0
2000-05-25,38.0
2000-05-26,38.0
2000-05-27,38.0
2000-05-28,38.0
2000-05-29,38.0
2000-05-30,38.0
2000-05-31,37.0
2000-06-01,38.0
2000-06-02,39.0
2000-06-03,39.0
2000-06-04,39.0
2000-06-05,39.0
2000-06-06,39.0
2000-06-07,39.0
2000-06-08,38.0
2000-06-09,38.0
2000-06-10,38.0
2000-06-11,38.0
2000-06-12,38.0
2000-06-13,38.0
2000-06-14,38.0
2000-06-15,39.0
2000-06-16,38.0
2000-06-17,39.0
2000-06-18,40.0
2000-06-19,39.0
2000-06-20,39.0
2000-06-21,39.0
2000-06-22,39.0
2000-06-23,39.0
2000-06-24,38.0
2000-06-25,39.0
2000-06-26,39.0
2000-06-27,39.0
2000-06-28,38.0
2000-06-29,38.0
2000-06-30,38.0
2000-07-01,38.0
2000-07-02,37.0
2000-07-03,38.0
2000-07-04,36.0
2000-07-05,36.0
2000-07-06,36.0
2000-07-07,36.0
2000-07-08,36.0
2000-07-09,36.0
2000-07-10,36.0
2000-07-11,37.0
2000-07-12,36.0
2000-07-13,35.0
2000-07-14,35.0
2000-07-15,35.0
2000-07-16,36.0
2000-07-17,35.0
2000-07-18,34.0
2000-07-19,33.0
2000-07-20,35.0
2000-07-21,33.0
2000-07-22,33.0
2000-07-23,33.0
2000-07-24,34.0
2000-07-25,34.0
2000-07-26,35.0
2000-07-27,35.0
2000-07-28,41.0
2000-07-29,38.0
2000-07-30,37.0
2000-07-31,37.0
2000-08-01,36.0
2000-08-02,36.0
2000-08-03,36.0
2000-08-04,37.0
2000-08-05,36.0
2000-08-06,34.0
2000-08-07,33.0
2000-08-08,33.0
2000-08-09,31.0
2000-08-10,31.0
2000-08-11,31.0
2000-08-12,31.0
2000-08-13,31.0
2000-08-14,31.0
2000-08-15,31.0
2000-08-16,31.0
2000-08-17,31.0
2000-08-18,31.0
2000-08-19,34.0
2000-08-20,33.0
2000-08-21,33.0
2000-08-22,33.0
2000-08-23,33.0
2000-08-24,33.0
2000-08-25,33.0
2000-08-26,34.0
2000-08-27,32.0
2000-08-28,32.0
2000-08-29,32.0
2000-08-30,33.0
2000-08-31,32.0
2000-09-01,33.0
2000-09-02,33.0
2000-09-03,32.0
2000-09-04,32.0
2000-09-05,32.0
2000-09-06,32.0
2000-09-07,32.0
2000-09-08,33.0
2000-09-09,33.0
2000-09-10,33.0
2000-09-11,32.0
2000-09-12,32.0
2000-09-13,32.0
2000-09-14,32.0
2000-09-15,32.0
2000-09-16,31.0
2000-09-17,32.0
2000-09-18,31.0
2000-09-19,32.0
2000-09-20,32.0
2000-09-21,32.0
2000-09-22,32.0
2000-09-23,33.0
2000-09-24,32.0
2000-09-25,32.0
2000-09-26,32.0
2000-09-27,32.0
2000-09-28,32.0
2000-09-29,32.0
2000-09-30,33.0
2000-10-01,11.0
2000-10-02,5.3
2000-10-03,5.0
2000-10-04,5.0
2000-10-05,4.9
2000-10-06,5.0
2000-10-07,4.9
2000-10-08,4.9
2000-10-09,5.0
2000-10-10,6.1
2000-10-11,5.9
2000-10-12,5.6
2000-10-13,5.4
2000-10-14,5.3
2000-10-15,5.3
2000-10-16,5.2
2000-10-17,5.2
2000-10-18,5.2
2000-10-19,5.2
2000-10-20,5.1
2000-10-21,5.8
2000-10-22,5.4
2000-10-23,5.4
2000-10-24,5.2
2000-10-25,5.2
2000-10-26,5.1
2000-10-27,5.2
2000-10-28,5.4
2000-10-29,5.2
2000-10-30,5.7
2000-10-31,6.3
2000-11-01,5.7
2000-11-02,5.5
2000-11-03,5.4
2000-11-04,5.2
2000-11-05,5.0
2000-11-06,5.2
2000-11-07,5.0
2000-11-08,4.7
2000-11-09,4.8
2000-11-10,4.9
2000-11-11,4.8
2000-11-12,4.7
2000-11-13,4.9
2000-11-14,4.8
2000-11-15,4.7
2000-11-16,4.9
2000-11-17,4.8
2000-11-18,4.7
2000-11-19,4.8
2000-11-20,5.0
2000-11-21,5.1
2000-11-22,5.2
2000-11-23,5.3
2000-11-24,5.4
2000-11-25,5.6
2000-11-26,6.0
2000-11-27,6.0
2000-11-28,5.8
2000-11-29,5.6
2000-11-30,5.4
2000-12-01,5.2
2000-12-02,5.2
2000-12-03,5.2
2000-12-04,5.3
2000-12-05,5.4
2000-12-06,5.5
2000-12-07,5.6
2000-12-08,5.7
2000-12-09,5.4
2000-12-10,5.1
2000-12-11,4.6
2000-12-12,4.3
2000-12-13,4.3
2000-12-14,4.3
2000-12-15,4.5
2000-12-16,4.6
2000-12-17,4.3
2000-12-18,3.7
2000-12-19,3.2
2000-12-20,3.3
2000-12-21,3.4
2000-12-22,3.5
2000-12-23,3.6
2000-12-24,3.6
2000-12-25,3.7
2000-12-26,4.1
2000-12-27,3.9
2000-12-28,3.7
2000-12-29,3.8
2000-12-30,3.9
2000-12-31,3.9
2001-01-01,3.9
2001-01-02,3.9
2001-01-03,4.0
2001-01-04,4.0
2001-01-05,3.9
2001-01-06,4.1
2001-01-07,4.2
2001-01-08,4.1
2001-01-09,4.2
2001-01-10,4.3
2001-01-11,4.5
2001-01-12,4.4
2001-01-13,4.6
2001-01-14,4.7
2001-01-15,4.6
2001-01-16,4.3
2001-01-17,4.2
2001-01-18,4.1
2001-01-19,4.1
2001-01-20,4.2
2001-01-21,4.5
2001-01-22,4.6
2001-01-23,4.6
2001-01-24,4.5
2001-01-25,4.7
2001-01-26,4.5
2001-01-27,4.6
2001-01-28,4.6
2001-01-29,4.5
2001-01-30,4.4
2001-01-31,4.2
2001-02-01,4.1
2001-02-02,4.2
2001-02-03,4.3
2001-02-04,4.4
2001-02-05,4.3
2001-02-06,4.2
2001-02-07,4.1
2001-02-08,4.0
2001-02-09,4.0
2001-02-10,4.0
2001-02-11,4.1
2001-02-12,4.2
2001-02-13,4.2
2001-02-14,4.0
2001-02-15,3.9
2001-02-16,4.0
2001-02-17,4.2
2001-02-18,4.3
2001-02-19,4.6
2001-02-20,4.3
2001-02-21,4.3
2001-02-22,5.0
2001-02-23,4.6
2001-02-24,4.2
2001-02-25,3.9
2001-02-26,5.9
2001-02-27,3.9
2001-02-28,4.2
2001-03-01,4.0
2001-03-02,5.6
2001-03-03,4.0
2001-03-04,5.8
2001-03-05,4.0
2001-03-06,4.4
2001-03-07,4.8
2001-03-08,4.9
2001-03-09,4.9
2001-03-10,5.2
2001-03-11,4.8
2001-03-12,4.8
2001-03-13,4.6
2001-03-14,4.3
2001-03-15,5.5
2001-03-16,4.3
2001-03-17,4.0
2001-03-18,3.9
2001-03-19,4.2
2001-03-20,4.7
2001-03-21,5.3
2001-03-22,5.7
2001-03-23,5.7
2001-03-24,5.4
2001-03-25,5.4
2001-03-26,5.2
2001-03-27,4.8
2001-03-28,4.7
2001-03-29,5.0
2001-03-30,4.5
2001-03-31,4.6
2001-04-01,5.1
2001-04-02,5.5
2001-04-03,5.2
2001-04-04,5.0
2001-04-05,5.2
2001-04-06,5.5
2001-04-07,5.7
2001-04-08,5.6
2001-04-09,5.8
2001-04-10,5.4
2001-04-11,5.7
2001-04-12,5.5
2001-04-13,6.8
2001-04-14,5.1
2001-04-15,5.0
2001-04-16,5.4
2001-04-17,5.5
2001-04-18,6.5
2001-04-19,5.9
2001-04-20,6.4
2001-04-21,6.8
2001-04-22,6.5
2001-04-23,6.3
2001-04-24,6.4
2001-04-25,6.6
2001-04-26,7.0
2001-04-27,7.2
2001-04-28,7.4
2001-04-29,7.7
2001-04-30,7.8
2001-05-01,7.8
2001-05-02,7.8
2001-05-03,7.8
2001-05-04,7.7
2001-05-05,7.5
2001-05-06,7.4
2001-05-07,15.0
2001-05-08,36.0
2001-05-09,36.0
2001-05-10,36.0
2001-05-11,36.0
2001-05-12,36.0
2001-05-13,36.0
2001-05-14,36.0
2001-05-15,37.0
2001-05-16,37.0
2001-05-17,37.0
2001-05-18,37.0
2001-05-19,37.0
2001-05-20,37.0
2001-05-21,37.0
2001-05-22,37.0
2001-05-23,39.0
2001-05-24,40.0
2001-05-25,40.0
2001-05-26,41.0
2001-05-27,41.0
2001-05-28,41.0
2001-05-29,41.0
2001-05-30,41.0
2001-05-31,40.0
2001-06-01,40.0
2001-06-02,40.0
2001-06-03,40.0
2001-06-04,40.0
2001-06-05,41.0
2001-06-06,41.0
2001-06-07,42.0
2001-06-08,42.0
2001-06-09,41.0
2001-06-10,41.0
2001-06-11,42.0
2001-06-12,42.0
2001-06-13,42.0
2001-06-14,42.0
2001-06-15,43.0
2001-06-16,43.0
2001-06-17,43.0
2001-06-18,44.0
2001-06-19,45.0
2001-06-20,45.0
2001-06-21,45.0
2001-06-22,46.0
2001-06-23,47.0
2001-06-24,48.0
2001-06-25,47.0
2001-06-26,48.0
2001-06-27,47.0
2001-06-28,47.0
2001-06-29,47.0
2001-06-30,47.0
2001-07-01,47.0
2001-07-02,47.0
2001-07-03,48.0
2001-07-04,46.0
2001-07-05,46.0
2001-07-06,45.0
2001-07-07,44.0
2001-07-08,44.0
2001-07-09,43.0
2001-07-10,42.0
2001-07-11,42.0
2001-07-12,41.0
2001-07-13,41.0
2001-07-14,42.0
2001-07-15,41.0
2001-07-16,40.0
2001-07-17,40.0
2001-07-18,39.0
2001-07-19,39.0
2001-07-20,39.0
2001-07-21,39.0
2001-07-22,39.0
2001-07-23,38.0
2001-07-24,38.0
2001-07-25,38.0
2001-07-26,38.0
2001-07-27,38.0
2001-07-28,37.0
2001-07-29,37.0
2001-07-30,37.0
2001-07-31,37.0
2001-08-01,38.0
2001-08-02,38.0
2001-08-03,39.0
2001-08-04,37.0
2001-08-05,37.0
2001-08-06,36.0
2001-08-07,36.0
2001-08-08,36.0
2001-08-09,36.0
2001-08-10,36.0
2001-08-11,36.0
2001-08-12,35.0
2001-08-13,35.0
2001-08-14,35.0
2001-08-15,35.0
2001-08-16,35.0
2001-08-17,35.0
2001-08-18,35.0
2001-08-19,34.0
2001-08-20,35.0
2001-08-21,35.0
2001-08-22,35.0
2001-08-23,37.0
2001-08-24,36.0
2001-08-25,35.0
2001-08-26,35.0
2001-08-27,34.0
2001-08-28,34.0
2001-08-29,34.0
2001-08-30,34.0
2001-08-31,35.0
2001-09-01,35.0
2001-09-02,35.0
2001-09-03,36.0
2001-09-04,35.0
2001-09-05,35.0
2001-09-06,34.0
2001-09-07,34.0
2001-09-08,33.0
2001-09-09,34.0
2001-09-10,33.0
2001-09-11,33.0
2001-09-12,33.0
2001-09-13,38.0
2001-09-14,37.0
2001-09-15,36.0
2001-09-16,37.0
2001-09-17,37.0
2001-09-18,38.0
2001-09-19,36.0
2001-09-20,34.0
2001-09-21,37.0
2001-09-22,37.0
2001-09-23,36.0
2001-09-24,36.0
2001-09-25,36.0
2001-09-26,36.0
2001-09-27,35.0
2001-09-28,35.0
2001-09-29,35.0
2001-09-30,35.0
2001-10-01,35.0
2001-10-02,35.0
2001-10-03,34.0
2001-10-04,35.0
2001-10-05,34.0
2001-10-06,34.0
2001-10-07,34.0
2001-10-08,34.0
2001-10-09,35.0
2001-10-10,33.0
2001-10-11,29.0
2001-10-12,30.0
2001-10-13,28.0
2001-10-14,30.0
2001-10-15,32.0
2001-10-16,32.0
2001-10-17,32.0
2001-10-18,32.0
2001-10-19,33.0
2001-10-20,33.0
2001-10-21,33.0
2001-10-22,33.0
2001-10-23,34.0
2001-10-24,29.0
2001-10-25,24.0
2001-10-26,25.0
2001-10-27,25.0
2001-10-28,25.0
2001-10-29,25.0
2001-10-30,25.0
2001-10-31,25.0
2001-11-01,25.0
2001-11-02,25.0
2001-11-03,26.0
2001-11-04,24.0
2001-11-05,24.0
2001-11-06,24.0
2001-11-07,24.0
2001-11-08,23.0
2001-11-09,23.0
2001-11-10,22.0
2001-11-11,21.0
2001-11-12,21.0
2001-11-13,21.0
2001-11-14,21.0
2001-11-15,23.0
2001-11-16,21.0
2001-11-17,21.0
2001-11-18,22.0
2001-11-19,23.0
2001-11-20,22.0
2001-11-21,22.0
2001-11-22,23.0
2001-11-23,22.0
2001-11-24,22.0
2001-11-25,22.0
2001-11-26,21.0
2001-11-27,24.0
2001-11-28,27.0
2001-11-29,24.0
2001-11-30,24.0
2001-12-01,24.0
2001-12-02,24.0
2001-12-03,24.0
2001-12-04,26.0
2001-12-05,28.0
2001-12-06,27.0
2001-12-07,26.0
2001-12-08,27.0
2001-12-09,26.0
2001-12-10,26.0
2001-12-11,25.0
2001-12-12,27.0
2001-12-13,27.0
2001-12-14,25.0
2001-12-15,24.0
2001-12-16,24.0
2001-12-17,23.0
2001-12-18,24.0
2001-12-19,24.0
2001-12-20,24.0
2001-12-21,23.0
2001-12-22,21.0
2001-12-23,22.0
2001-12-24,22.0
2001-12-25,22.0
2001-12-26,23.0
2001-12-27,23.0
2001-12-28,23.0
2001-12-29,23.0
2001-12-30,22.0
2001-12-31,22.0
2002-01-01,22.0
2002-01-02,23.0
2002-01-03,22.0
2002-01-04,22.0
2002-01-05,22.0
2002-01-06,21.0
2002-01-07,22.0
2002-01-08,22.0
2002-01-09,22.0
2002-01-10,21.0
2002-01-11,22.0
2002-01-12,22.0
2002-01-13,21.0
2002-01-14,22.0
2002-01-15,23.0
2002-01-16,23.0
2002-01-17,23.0
2002-01-18,23.0
2002-01-19,24.0
2002-01-20,24.0
2002-01-21,23.0
2002-01-22,23.0
2002-01-23,23.0
2002-01-24,23.0
2002-01-25,23.0
2002-01-26,24.0
2002-01-27,23.0
2002-01-28,22.0
2002-01-29,21.0
2002-01-30,22.0
2002-01-31,23.0
2002-02-01,23.0
2002-02-02,24.0
2002-02-03,24.0
2002-02-04,24.0
2002-02-05,24.0
2002-02-06,24.0
2002-02-07,23.0
2002-02-08,22.0
2002-02-09,22.0
2002-02-10,22.0
2002-02-11,21.0
2002-02-12,21.0
2002-02-13,23.0
2002-02-14,21.0
2002-02-15,23.0
2002-02-16,22.0
2002-02-17,22.0
2002-02-18,22.0
2002-02-19,21.0
2002-02-20,22.0
2002-02-21,22.0
2002-02-22,22.0
2002-02-23,22.0
2002-02-24,21.0
2002-02-25,21.0
2002-02-26,23.0
2002-02-27,24.0
2002-02-28,24.0
2002-03-01,21.0
2002-03-02,22.0
2002-03-03,22.0
2002-03-04,22.0
2002-03-05,22.0
2002-03-06,21.0
2002-03-07,22.0
2002-03-08,21.0
2002-03-09,22.0
2002-03-10,21.0
2002-03-11,21.0
2002-03-12,21.0
2002-03-13,22.0
2002-03-14,21.0
2002-03-15,22.0
2002-03-16,22.0
2002-03-17,21.0
2002-03-18,22.0
2002-03-19,22.0
2002-03-20,23.0
2002-03-21,23.0
2002-03-22,24.0
2002-03-23,24.0
2002-03-24,23.0
2002-03-25,24.0
2002-03-26,24.0
2002-03-27,25.0
2002-03-28,25.0
2002-03-29,25.0
2002-03-30,25.0
2002-03-31,26.0
2002-04-01,26.0
2002-04-02,27.0
2002-04-03,27.0
2002-04-04,27.0
2002-04-05,27.0
2002-04-06,27.0
2002-04-07,26.0
2002-04-08,26.0
2002-04-09,26.0
2002-04-10,26.0
2002-04-11,27.0
2002-04-12,27.0
2002-04-13,27.0
2002-04-14,28.0
2002-04-15,28.0
2002-04-16,27.0
2002-04-17,27.0
2002-04-18,27.0
2002-04-19,27.0
2002-04-20,28.0
2002-04-21,28.0
2002-04-22,28.0
2002-04-23,28.0
2002-04-24,27.0
2002-04-25,29.0
2002-04-26,29.0
2002-04-27,29.0
2002-04-28,29.0
2002-04-29,29.0
2002-04-30,32.0
2002-05-01,36.0
2002-05-02,37.0
2002-05-03,37.0
2002-05-04,39.0
2002-05-05,36.0
2002-05-06,37.0
2002-05-07,40.0
2002-05-08,38.0
2002-05-09,38.0
2002-05-10,37.0
2002-05-11,34.0
2002-05-12,33.0
2002-05-13,34.0
2002-05-14,34.0
2002-05-15,35.0
2002-05-16,34.0
2002-05-17,33.0
2002-05-18,33.0
2002-05-19,33.0
2002-05-20,33.0
2002-05-21,33.0
2002-05-22,33.0
2002-05-23,33.0
2002-05-24,33.0
2002-05-25,34.0
2002-05-26,33.0
2002-05-27,33.0
2002-05-28,34.0
2002-05-29,34.0
2002-05-30,35.0
2002-05-31,36.0
2002-06-01,36.0
2002-06-02,37.0
2002-06-03,36.0
2002-06-04,36.0
2002-06-05,38.0
2002-06-06,41.0
2002-06-07,40.0
2002-06-08,42.0
2002-06-09,41.0
2002-06-10,40.0
2002-06-11,38.0
2002-06-12,35.0
2002-06-13,34.0
2002-06-14,32.0
2002-06-15,28.0
2002-06-16,26.0
2002-06-17,29.0
2002-06-18,39.0
2002-06-19,38.0
2002-06-20,40.0
2002-06-21,39.0
2002-06-22,41.0
2002-06-23,41.0
2002-06-24,41.0
2002-06-25,39.0
2002-06-26,45.0
2002-06-27,50.0
2002-06-28,58.0
2002-06-29,45.0
2002-06-30,44.0
2002-07-01,40.0
2002-07-02,39.0
2002-07-03,41.0
2002-07-04,41.0
2002-07-05,37.0
2002-07-06,36.0
2002-07-07,36.0
2002-07-08,36.0
2002-07-09,32.0
2002-07-10,32.0
2002-07-11,33.0
2002-07-12,33.0
2002-07-13,33.0
2002-07-14,33.0
2002-07-15,33.0
2002-07-16,32.0
2002-07-17,33.0
2002-07-18,32.0
2002-07-19,33.0
2002-07-20,33.0
2002-07-21,34.0
2002-07-22,31.0
2002-07-23,32.0
2002-07-24,33.0
2002-07-25,31.0
2002-07-26,36.0
2002-07-27,44.0
2002-07-28,41.0
2002-07-29,41.0
2002-07-30,40.0
2002-07-31,42.0
2002-08-01,42.0
2002-08-02,44.0
2002-08-03,45.0
2002-08-04,45.0
2002-08-05,43.0
2002-08-06,38.0
2002-08-07,37.0
2002-08-08,37.0
2002-08-09,36.0
2002-08-10,36.0
2002-08-11,38.0
2002-08-12,40.0
2002-08-13,39.0
2002-08-14,39.0
2002-08-15,34.0
2002-08-16,34.0
2002-08-17,35.0
2002-08-18,34.0
2002-08-19,31.0
2002-08-20,32.0
2002-08-21,33.0
2002-08-22,31.0
2002-08-23,32.0
2002-08-24,33.0
2002-08-25,33.0
2002-08-26,33.0
2002-08-27,36.0
2002-08-28,34.0
2002-08-29,35.0
2002-08-30,35.0
2002-08-31,29.0
2002-09-01,32.0
2002-09-02,32.0
2002-09-03,29.0
2002-09-04,27.0
2002-09-05,27.0
2002-09-06,26.0
2002-09-07,26.0
2002-09-08,25.0
2002-09-09,25.0
2002-09-10,25.0
2002-09-11,30.0
2002-09-12,29.0
2002-09-13,30.0
2002-09-14,30.0
2002-09-15,29.0
2002-09-16,30.0
2002-09-17,29.0
2002-09-18,30.0
2002-09-19,30.0
2002-09-20,30.0
2002-09-21,30.0
2002-09-22,30.0
2002-09-23,29.0
2002-09-24,29.0
2002-09-25,29.0
2002-09-26,29.0
2002-09-27,29.0
2002-09-28,30.0
2002-09-29,30.0
2002-09-30,25.0
2002-10-01,21.0
2002-10-02,24.0
2002-10-03,26.0
2002-10-04,24.0
2002-10-05,24.0
2002-10-06,24.0
2002-10-07,24.0
2002-10-08,24.0
2002-10-09,23.0
2002-10-10,24.0
2002-10-11,25.0
2002-10-12,24.0
2002-10-13,24.0
2002-10-14,25.0
2002-10-15,25.0
2002-10-16,25.0
2002-10-17,25.0
2002-10-18,25.0
2002-10-19,23.0
2002-10-20,23.0
2002-10-21,23.0
2002-10-22,26.0
2002-10-23,26.0
2002-10-24,25.0
2002-10-25,26.0
2002-10-26,26.0
2002-10-27,28.0
2002-10-28,27.0
2002-10-29,26.0
2002-10-30,27.0
2002-10-31,24.0
2002-11-01,24.0
2002-11-02,24.0
2002-11-03,25.0
2002-11-04,24.0
2002-11-05,24.0
2002-11-06,24.0
2002-11-07,24.0
2002-11-08,26.0
2002-11-09,27.0
2002-11-10,25.0
2002-11-11,25.0
2002-11-12,24.0
2002-11-13,24.0
2002-11-14,24.0
2002-11-15,24.0
2002-11-16,24.0
2002-11-17,24.0
2002-11-18,24.0
2002-11-19,24.0
2002-11-20,24.0
2002-11-21,24.0
2002-11-22,24.0
2002-11-23,24.0
2002-11-24,24.0
2002-11-25,24.0
2002-11-26,28.0
2002-11-27,26.0
2002-11-28,24.0
2002-11-29,24.0
2002-11-30,24.0
2002-12-01,24.0
2002-12-02,24.0
2002-12-03,24.0
2002-12-04,24.0
2002-12-05,24.0
2002-12-06,24.0
2002-12-07,24.0
2002-12-08,25.0
2002-12-09,27.0
2002-12-10,25.0
2002-12-11,24.0
2002-12-12,24.0
2002-12-13,24.0
2002-12-14,24.0
2002-12-15,24.0
2002-12-16,25.0
2002-12-17,24.0